Location: Fort Wayne
(41.1310°N, 85.1290°W)
Time: 17:34:37
(UTC-04:00)

Cosmos 2056 Rocket - Visible Passes

Search period start: 28 March 2017 00:00
Search period end: 07 April 2017 00:00
Orbit: 741 x 802 km, 74.0° (Epoch: 27 March)

Date Brightness Start Highest point End Pass type
(mag) Time Alt. Az. Time Alt. Az. Time Alt. Az.
29 Mar 6.5 01:09:31 12° NNW 01:09:31 12° NNW 01:10:03 10° NNW visible
30 Mar 6.2 00:33:33 15° N 00:33:33 15° N 00:34:43 10° N visible
30 Mar 5.8 23:57:29 19° N 23:57:29 19° N 23:59:07 10° N visible
31 Mar 5.4 23:21:18 23° NNE 23:21:18 23° NNE 23:23:19 10° NNE visible
01 Apr 6.4 01:01:33 11° NW 01:01:33 11° NW 01:02:45 10° NNW visible
01 Apr 5.0 22:44:53 27° NNE 22:44:53 27° NNE 22:47:19 10° NNE visible
02 Apr 6.0 00:25:08 18° NW 00:25:08 18° NW 00:28:17 10° NNW visible
02 Apr 4.7 22:08:10 28° ENE 22:08:10 28° ENE 22:11:07 10° NE visible
02 Apr 5.3 23:48:23 28° WNW 23:48:23 28° WNW 23:53:00 10° N visible
03 Apr 6.9 06:50:28 10° NE 06:51:34 11° NE 06:52:40 10° ENE visible
03 Apr 4.7 21:30:51 23° E 21:30:51 23° E 21:34:35 10° NE visible
03 Apr 4.5 23:11:00 38° W 23:12:15 44° WNW 23:17:25 10° N visible
04 Apr 5.2 20:52:17 10° ESE 20:54:49 14° E 20:57:21 10° ENE visible
04 Apr 3.7 22:31:33 14° SSW 22:36:13 73° WNW 22:41:38 10° NNE visible
05 Apr 6.5 00:18:03 10° WNW 00:19:23 11° NW 00:20:43 10° NW visible
05 Apr 3.4 21:55:01 10° S 22:00:17 69° ESE 22:05:40 10° NNE visible
05 Apr 6.1 23:39:32 10° W 23:43:00 17° NW 23:46:30 10° NNW visible
06 Apr 6.5 06:42:44 10° NNE 06:46:19 18° NE 06:49:53 10° E visible
06 Apr 3.9 21:19:30 10° S 21:24:28 41° ESE 21:29:30 10° NNE visible
06 Apr 5.6 23:02:16 10° WSW 23:06:44 26° WNW 23:11:16 10° N visible
